Weather History for Caldwell, TX

Change the Weather History Date:

Sunday, October 14, 2012

  Actual Average (KCLL) Record (KCLL)
Temperature  
Mean Temperature 73 °F 71 °F  
Max Temperature 84 °F 82 °F 95 °F (1910)
Min Temperature 62 °F 61 °F 44 °F (1914)
Degree Days  
Heating Degree Days 0 1  
Month to date heating degree days 4  
Since 1 July heating degree days 6  
Cooling Degree Days 8 7  
Month to date cooling degree days 122  
Year to date cooling degree days 2918  
Growing Degree Days 23 (Base 50)    
Moisture  
Dew Point 65 °F    
Average Humidity 75    
Maximum Humidity 100    
Minimum Humidity 39    
Precipitation  
Precipitation 0.21 in 0.16 in 5.13 in (1957)
Month to date precipitation 2.13  
Year to date precipitation 30.83  
Sea Level Pressure  
Sea Level Pressure 30.05 in    
Wind  
Wind Speed 8 mph (West)    
Max Wind Speed 17 mph    
Max Gust Speed 25 mph    
Visibility 10 miles    
Events Rain , Thunderstorm    
T = Trace of Precipitation, MM = Missing Value Source: NWS Daily Summary

Daily Weather History Graph

Daily Weather History Graph

Search for Another Location

Airport:

Trip Planner

Search our weather history database for the weather conditions in past years. The results will help you decide how hot, cold, wet, or windy it might be!

Date:

Astronomy

Oct. 14, 2012 Rise Set
Actual Time 7:28 AM CDT 6:56 PM CDT
Civil Twilight 7:04 AM CDT 7:20 PM CDT
Nautical Twilight 6:36 AM CDT 7:48 PM CDT
Astronomical Twilight 6:08 AM CDT 8:16 PM CDT
Moon 6:30 AM CDT (10/14) 6:17 PM CDT (10/14)
Length of Visible Light 12h 15m
Length of Day
11h 27m
Waning Crescent, 1% of the Moon is Illuminated
Oct 14
Waning Crescent
Oct 15
New
Oct 21
First Quarter
Oct 29
Full
Nov 6
Last Quarter

Hourly Weather History & Observations

Time (CDT) Temp. Heat Index Dew Point Humidity Pressure Visibility Wind Dir Wind Speed Gust Speed Precip Events Conditions
12:15 AM 75.2 °F - 71.6 °F 89% 29.97 in 10.0 mi SSE 12.7 mph 20.7 mph N/A   Overcast
12:35 AM 75.2 °F - 71.6 °F 89% 29.97 in 10.0 mi South 15.0 mph 25.3 mph N/A   Mostly Cloudy
12:55 AM 75.2 °F - 71.6 °F 89% 29.98 in 10.0 mi South 13.8 mph - N/A   Mostly Cloudy
1:15 AM 75.2 °F - 71.6 °F 89% 29.97 in 10.0 mi South 11.5 mph 18.4 mph N/A   Mostly Cloudy
1:35 AM 75.2 °F - 71.6 °F 89% 29.97 in 10.0 mi South 17.3 mph 23.0 mph N/A   Overcast
1:55 AM 75.2 °F - 71.6 °F 89% 29.97 in 10.0 mi South 13.8 mph 23.0 mph N/A   Mostly Cloudy
2:15 AM 75.2 °F - 71.6 °F 89% 29.97 in 10.0 mi South 11.5 mph 19.6 mph N/A   Scattered Clouds
2:35 AM 75.2 °F - 71.6 °F 89% 29.98 in 10.0 mi South 9.2 mph - N/A   Mostly Cloudy
2:55 AM 75.2 °F - 71.6 °F 89% 29.99 in 10.0 mi South 9.2 mph - N/A   Overcast
3:15 AM 75.2 °F - 71.6 °F 89% 29.98 in 10.0 mi South 11.5 mph - N/A   Overcast
3:35 AM 75.2 °F - 71.6 °F 89% 29.97 in 10.0 mi South 11.5 mph - N/A   Mostly Cloudy
3:55 AM 75.2 °F - 71.6 °F 89% 29.98 in 8.0 mi South 8.1 mph - 0.01 in   Mostly Cloudy
4:15 AM 73.4 °F - 71.6 °F 94% 29.99 in 10.0 mi SSW 11.5 mph - N/A Thunderstorm Overcast
4:35 AM 73.4 °F - 71.6 °F 94% 30.01 in 7.0 mi SW 8.1 mph 16.1 mph N/A Thunderstorm Unknown
4:55 AM 73.4 °F - 71.6 °F 94% 30.03 in 8.0 mi WSW 11.5 mph - 0.01 in Thunderstorm Drizzle
5:15 AM 69.8 °F - 68.0 °F 94% 30.04 in 2.5 mi West 9.2 mph - 0.15 in Rain Heavy Rain
5:55 AM 69.8 °F - 66.2 °F 88% 30.01 in 9.0 mi WNW 3.5 mph - 0.19 in Thunderstorm Mostly Cloudy
6:15 AM 69.8 °F - 66.2 °F 88% 30.02 in 10.0 mi West 3.5 mph - N/A Thunderstorm Partly Cloudy
6:35 AM 69.8 °F - 68.0 °F 94% 30.04 in 10.0 mi ESE 6.9 mph - N/A Thunderstorm Scattered Clouds
6:55 AM 69.8 °F - 68.0 °F 94% 30.05 in 10.0 mi ESE 5.8 mph - N/A Thunderstorm Mostly Cloudy
7:15 AM 69.8 °F - 68.0 °F 94% 30.05 in 10.0 mi ESE 3.5 mph - N/A Thunderstorm Overcast
7:35 AM 68.0 °F - 68.0 °F 100% 30.05 in 10.0 mi NE 4.6 mph - N/A   Mostly Cloudy
7:55 AM 69.8 °F - 68.0 °F 94% 30.05 in 10.0 mi Calm Calm - N/A   Partly Cloudy
8:15 AM 69.8 °F - 69.8 °F 100% 30.05 in 10.0 mi Calm Calm - N/A   Clear
8:35 AM 69.8 °F - 69.8 °F 100% 30.06 in 10.0 mi Calm Calm - N/A   Clear
8:55 AM 69.8 °F - 69.8 °F 100% 30.08 in 10.0 mi Calm Calm - N/A Thunderstorm Light Drizzle
9:15 AM 71.6 °F - 71.6 °F 100% 30.09 in 9.0 mi Calm Calm - N/A   Mostly Cloudy
9:35 AM 71.6 °F - 71.6 °F 100% 30.10 in 10.0 mi Calm Calm - N/A   Mostly Cloudy
9:55 AM 73.4 °F - 71.6 °F 94% 30.11 in 10.0 mi Calm Calm - N/A   Partly Cloudy
10:15 AM 75.2 °F - 73.4 °F 94% 30.11 in 10.0 mi SE 3.5 mph - N/A   Scattered Clouds
10:35 AM 77.0 °F - 71.6 °F 83% 30.11 in 10.0 mi WSW 3.5 mph - N/A   Mostly Cloudy
10:55 AM 77.0 °F - 71.6 °F 83% 30.11 in 10.0 mi SSW 5.8 mph - N/A   Mostly Cloudy
11:15 AM 78.8 °F - 71.6 °F 78% 30.10 in 10.0 mi SSW 5.8 mph - N/A   Scattered Clouds
11:35 AM 78.8 °F - 71.6 °F 78% 30.10 in 10.0 mi SW 5.8 mph - N/A   Mostly Cloudy
11:55 AM 78.8 °F - 69.8 °F 74% 30.09 in 10.0 mi SW 8.1 mph - N/A   Scattered Clouds
12:15 PM 80.6 °F 83.9 °F 69.8 °F 70% 30.09 in 10.0 mi West 8.1 mph - N/A   Mostly Cloudy
12:35 PM 80.6 °F 83.9 °F 69.8 °F 70% 30.08 in 10.0 mi WSW 5.8 mph - N/A   Scattered Clouds
12:55 PM 80.6 °F 83.9 °F 69.8 °F 70% 30.07 in 10.0 mi West 8.1 mph - N/A   Clear
1:15 PM 82.4 °F 85.4 °F 68.0 °F 62% 30.06 in 10.0 mi West 6.9 mph - N/A   Partly Cloudy
1:35 PM 82.4 °F 84.6 °F 66.2 °F 58% 30.05 in 10.0 mi West 6.9 mph - N/A   Partly Cloudy
1:55 PM 82.4 °F 84.6 °F 66.2 °F 58% 30.05 in 5.0 mi WNW 6.9 mph - N/A   Haze
2:15 PM 82.4 °F 84.6 °F 66.2 °F 58% 30.04 in 10.0 mi West 8.1 mph - N/A   Clear
2:35 PM 84.2 °F 85.6 °F 64.4 °F 51% 30.04 in 10.0 mi NW 6.9 mph - N/A   Clear
2:55 PM 82.4 °F 83.9 °F 64.4 °F 54% 30.04 in 10.0 mi West 6.9 mph - N/A   Clear
3:15 PM 84.2 °F 85.0 °F 62.6 °F 48% 30.04 in 10.0 mi NNW 5.8 mph - N/A   Clear
3:35 PM 84.2 °F 85.0 °F 62.6 °F 48% 30.04 in 10.0 mi NW 8.1 mph - N/A   Clear
3:55 PM 82.4 °F 83.4 °F 62.6 °F 51% 30.04 in 10.0 mi North 6.9 mph - N/A   Clear
4:15 PM 84.2 °F 85.0 °F 62.6 °F 48% 30.03 in 10.0 mi NW 5.8 mph - N/A   Clear
4:35 PM 82.4 °F 83.4 °F 62.6 °F 51% 30.03 in 10.0 mi NW 4.6 mph - N/A   Clear
4:55 PM 82.4 °F 82.5 °F 59.0 °F 45% 30.03 in 10.0 mi NNW 8.1 mph - N/A   Clear
5:15 PM 82.4 °F 82.5 °F 59.0 °F 45% 30.03 in - NW 8.1 mph - N/A   Clear
5:35 PM 82.4 °F 81.7 °F 55.4 °F 39% 30.02 in - NW 10.4 mph - N/A   Clear
5:55 PM 80.6 °F 80.5 °F 55.4 °F 42% 30.03 in 10.0 mi NNW 5.8 mph - N/A   Clear
6:15 PM 78.8 °F - 57.2 °F 47% 30.03 in 10.0 mi NNW 5.8 mph - N/A   Clear
6:35 PM 75.2 °F - 57.2 °F 53% 30.03 in 10.0 mi NNW 4.6 mph - N/A   Clear
6:55 PM 75.2 °F - 57.2 °F 53% 30.04 in 10.0 mi NNW 4.6 mph - N/A   Clear
7:15 PM 73.4 °F - 57.2 °F 57% 30.04 in 10.0 mi NNW 3.5 mph - N/A   Clear
7:35 PM 71.6 °F - 57.2 °F 60% 30.05 in 10.0 mi NNW 3.5 mph - N/A   Clear
7:55 PM 71.6 °F - 55.4 °F 57% 30.05 in 10.0 mi NNW 3.5 mph - N/A   Clear
8:15 PM 71.6 °F - 55.4 °F 57% 30.06 in 10.0 mi Calm Calm - N/A   Clear
8:35 PM 68.0 °F - 57.2 °F 68% 30.07 in 10.0 mi Calm Calm - N/A   Clear
8:55 PM 69.8 °F - 55.4 °F 60% 30.08 in 10.0 mi Calm Calm - N/A   Clear
9:15 PM 68.0 °F - 55.4 °F 64% 30.08 in 10.0 mi Calm Calm - N/A   Clear
9:35 PM 66.2 °F - 55.4 °F 68% 30.09 in 10.0 mi Calm Calm - N/A   Clear
9:55 PM 66.2 °F - 55.4 °F 68% 30.09 in 10.0 mi NW 4.6 mph - N/A   Clear
10:15 PM 62.6 °F - 59.0 °F 88% 30.10 in 10.0 mi NNW 3.5 mph - N/A   Clear
10:35 PM 64.4 °F - 57.2 °F 77% 30.10 in 10.0 mi NNW 4.6 mph - N/A   Clear
10:55 PM 64.4 °F - 57.2 °F 77% 30.11 in 10.0 mi Calm Calm - N/A   Clear
11:15 PM 64.4 °F - 57.2 °F 77% 30.11 in 10.0 mi NNW 5.8 mph - N/A   Clear
11:35 PM 64.4 °F - 57.2 °F 77% 30.11 in 10.0 mi NNW 5.8 mph - N/A   Clear